Terminal Aerodrome Forecast
Issued by NWS Portland, OR

Home | Current Version | Previous Version | Text Only | Print | Product List | Glossary On
Versions: 1 2 3 4 5 6 7 8 9 10 11 12 13 14 15 16 17 18 19 20 21 22 23 24 25 26 27 28 29 30 31 32 33 34 35 36 37 38 39 40 41 42 43 44 45 46 47 48 49 50
489
FTUS46 KPQR 121806 AAA
TAFPDX
TAF AMD
KPDX 121806Z 1218/1318 12009KT P6SM -RA BKN040 OVC060
      TEMPO 1218/1219 2SM RA BR SCT025 BKN035 OVC050
     FM122200 19008KT P6SM -SHRA SCT040 OVC050
     FM131000 18007KT P6SM -SHRA BKN040 OVC070=

USA.gov is the U.S. government's official web portal to all federal, state and local government web resources and services.